Location: Long Sault Conservation Area
(44.0496°N, 78.7419°W)
Time: 20:54:34
(UTC-04:00)

Daily predictions for brighter satellites

Satellite Brightness Start Highest point End
(mag) Time Altitude Azimuth Time Altitude Azimuth Time Altitude Azimuth
Cosmos 2221 3.5 20:30:23 10° SSW 20:34:33 53° WNW 20:38:45 10° N
OE (NEXTSAT) 4.4 20:32:46 10° WSW 20:36:21 82° SSE 20:39:55 10° ENE
NOSS 2-1 (C) 3.1 20:33:38 10° SSW 20:37:14 79° SE 20:41:15 10° NE
BREEZE-M DEB (TANK) 2.9 20:31:58 10° WNW 20:37:57 69° NNE 20:40:27 10° ESE
NOSS 2-1 (D) 3.1 20:34:36 10° SSW 20:38:13 83° SE 20:42:15 10° NE
Cosmos 1340 2.6 20:35:57 10° S 20:39:43 76° E 20:43:31 10° NNE
Thor Agena Rocket 3.7 20:36:07 10° NNE 20:41:18 58° ESE 20:46:30 10° S
In-Cosmos 22 Rocket 4.4 20:36:20 10° NNW 20:41:49 74° W 20:47:09 10° S
SL-24 R/B - RUBIN 2 3.9 20:37:43 10° NW 20:42:03 65° WSW 20:46:23 10° SSE
Cosmos 2228 Rocket 4.1 20:39:40 10° SE 20:43:18 26° E 20:46:57 10° NNE
Lacrosse 5 4.2 20:40:08 10° NW 20:43:41 19° N 20:47:15 10° NE
ATLAS 2AS CENTAUR R/B 3.1 20:36:31 10° NW 20:44:31 69° NE 20:51:51 10° SE
Cosmos 1805 Rocket 4.3 20:46:29 10° NNW 20:50:45 56° W 20:55:00 10° S
Cosmos 1825 3.5 20:49:03 10° NNE 20:52:10 23° ENE 20:54:53 12° SE
Spot 2 Rocket 3.7 20:50:15 10° SE 20:55:11 52° ENE 21:00:08 10° N
Cosmos 1328 Rocket 3.7 20:52:58 10° S 20:57:15 53° E 21:01:36 10° NNE
Cosmos 2154 Rocket 4.1 20:52:35 10° S 20:58:52 90° ESE 21:05:08 10° N
SL-8 R/B 4.2 20:54:50 10° SSW 20:59:16 39° SE 21:03:43 10° ENE
ATLAS CENTAUR R/B 1.2 20:55:44 10° SSW 20:59:17 51° ESE 21:03:00 10° NE
SL-16 R/B 3.6 21:01:33 11° SE 21:04:41 17° E 21:08:14 10° ENE
Resurs 01 Rocket 1.6 21:03:30 10° SSE 21:07:58 88° ENE 21:12:26 10° NNW
NOSS 2-1 (E) 4.0 21:05:05 10° SW 21:08:40 55° NW 21:12:49 10° NNE
Cosmos 1470 Rocket 3.7 21:04:33 10° N 21:08:55 58° E 21:13:17 10° SSE
ARGOS 4.0 21:06:46 14° ESE 21:10:37 32° ENE 21:15:20 10° N
Meteor 2-3 Rocket 3.7 21:07:09 10° N 21:12:47 90° W 21:18:26 10° S
BREEZE-M DEB (TANK) 3.8 21:04:38 10° W 21:13:29 49° NNW 21:16:26 10° ENE
NOSS 3-4 (A) 4.5 21:08:12 10° NNW 21:14:45 43° NE 21:20:26 16° ESE
NOSS 3-4 (C) 4.5 21:08:18 10° NNW 21:14:51 42° NE 21:20:32 16° ESE
Cosmos 1939 Rocket 3.4 21:14:42 10° S 21:18:31 58° W 21:22:23 10° NNW
Cosmos 2341 Rocket 4.1 21:15:51 10° S 21:22:14 88° WNW 21:28:35 10° N
Cosmos 1869 3.8 21:19:47 15° SSE 21:22:41 38° E 21:26:25 10° NNE
NOSS 3-3 (A) 4.1 21:16:44 10° SW 21:22:47 81° NW 21:29:32 10° NE
NOSS 3-3 (C) 4.1 21:16:51 10° SW 21:22:54 81° NW 21:29:37 10° NE
NOSS 0 Rocket 3.9 21:17:42 10° SSW 21:23:51 74° ESE 21:30:04 10° NNE
Meteor 2-10 Rocket 4.3 21:20:50 12° SSE 21:25:44 38° E 21:31:04 10° NNE
Cosmos 2218 Rocket 4.1 21:20:51 10° SSE 21:27:02 57° E 21:33:16 10° NNE
USA 267 4.2 21:23:59 10° ENE 21:28:47 21° ESE 21:33:33 10° S
Aureole 2 4.1 21:26:27 10° SSW 21:29:27 76° WNW 21:32:25 10° NNE
Cosmos 1980 3.6 21:24:53 10° SSW 21:30:33 74° ESE 21:36:14 10° NNE
Cosmos 407 Rocket 4.1 21:26:52 10° N 21:31:42 39° ENE 21:34:17 23° ESE
ERS-1 Rocket 3.8 21:30:08 22° ESE 21:32:36 34° ENE 21:37:06 10° N
Cosmos 2297 4.4 21:29:02 10° NNW 21:34:23 40° ENE 21:37:25 23° ESE
Cosmos 1408 2.5 21:32:04 10° N 21:35:45 90° E 21:38:11 20° S
Cosmos 1933 Rocket 3.5 21:33:08 10° N 21:37:33 84° W 21:41:04 15° S
Cosmos 2366 rocket 4.0 21:32:24 10° S 21:38:31 62° E 21:44:43 10° NNE
H-2A R/B 2.5 21:36:33 24° ESE 21:39:03 42° ENE 21:43:42 10° N
Cosmos 2369 Rocket 4.3 21:37:45 10° NNE 21:40:18 13° NE 21:42:51 10° ENE
Cosmos 2333 Rocket 2.8 21:35:51 10° SW 21:41:27 60° WNW 21:47:04 10° NNE
Cosmos 1151 Rocket 3.1 21:38:13 10° SSW 21:42:28 75° W 21:46:45 10° N
Cosmos 1371 Rocket 4.0 21:37:22 10° S 21:42:35 61° ESE 21:47:52 10° NNE
Cosmos 1455 3.7 21:39:22 10° SW 21:42:57 38° WNW 21:46:35 10° N
USA 186 4.3 21:42:54 10° WSW 21:43:30 11° W 21:44:08 10° WNW
Cosmos 1441 Rocket 4.2 21:45:32 27° E 21:45:32 27° E 21:48:25 10° NNE
COSMOS 2428 4.5 21:41:40 10° WSW 21:46:52 35° NW 21:52:06 10° N
SL-8 Rocket 4.0 21:41:18 10° S 21:47:37 86° W 21:53:56 10° N
Helios 1B rocket 4.3 21:47:14 10° NE 21:48:47 16° ENE 21:48:47 16° ENE
Cosmos 1707 Rocket 4.5 21:52:59 29° E 21:52:59 29° E 21:56:40 10° NNE
Cosmos 1339 Rocket 4.4 21:47:35 10° N 21:53:43 76° E 21:57:44 23° SSE
MetOp-A 4.1 21:51:21 26° SSE 21:54:27 75° ENE 21:59:48 10° N
Cosmos 2219 Rocket 3.6 21:50:48 10° SW 21:56:07 40° WNW 22:01:26 10° NNE
CZ-4C R/B 4.2 21:59:36 11° ENE 21:59:36 11° ENE 21:59:55 10° ENE
Cosmos 2237 Rocket 2.4 21:52:19 10° SSW 21:57:56 74° WNW 22:03:36 10° NNE
Cosmos 1869 Rocket 3.7 21:55:39 10° N 21:59:57 52° ENE 22:00:54 43° ESE
Cosmos 2056 Rocket 3.5 21:58:40 10° SSW 22:04:04 74° ESE 22:09:29 10° NNE
Cosmos 1452 Rocket 4.4 22:05:38 29° E 22:05:38 29° E 22:09:40 10° NE
Cosmos 2278 Rocket 2.9 22:00:40 10° NW 22:06:07 49° WSW 22:09:51 20° S
ATLAS 5 CENTAUR R/B 4.1 22:04:41 10° NNW 22:08:59 21° NNE 22:12:36 13° ENE
Helios 1A 3.2 22:08:42 46° E 22:09:15 50° ENE 22:13:19 10° N
Cosmos 1862 3.3 22:05:15 10° N 22:09:17 63° E 22:09:45 57° ESE
Terra 3.2 22:09:24 23° ENE 22:09:53 23° ENE 22:13:37 10° NNE
Cosmos 2098 Rocket 3.2 22:07:13 15° SSW 22:11:04 70° W 22:14:49 10° N
Cosmos 1437 Rocket 4.5 22:11:24 10° NNE 22:13:44 21° NE 22:13:44 21° NE
Cosmos 405 Rocket 2.8 22:15:05 59° ENE 22:15:05 59° ENE 22:18:44 10° NNE
Cosmos 405 3.1 22:13:43 10° NNW 22:17:13 68° W 22:17:29 64° SW
Cosmos 1624 Rocket 4.1 22:15:54 10° SSW 22:21:05 76° WNW 22:26:18 10° NNE
Cosmos 1190 Rocket 4.1 22:17:51 10° NNW 22:23:08 73° WSW 22:24:55 42° S
Cosmos 1140 Rocket 3.5 22:21:05 10° NNW 22:26:14 61° ENE 22:27:07 53° ESE
Cosmos 1825 4.3 22:24:34 10° NW 22:27:38 24° W 22:29:46 15° SW
Lacrosse 5 3.5 22:23:50 10° NW 22:28:09 27° NNE 22:30:32 19° ENE
SPOT 5 2.6 22:28:34 62° ESE 22:29:01 67° ENE 22:33:26 10° N
Cosmos 1934 Rocket 4.3 22:33:03 41° E 22:33:25 41° E 22:39:02 10° NNE
ATLAS 2AS CENTAUR R/B 4.3 22:28:24 10° NW 22:34:53 30° WSW 22:39:44 15° SSW
IGS 5A 4.4 22:35:30 37° NE 22:35:30 37° NE 22:38:50 10° N
Cosmos 1954 Rocket 3.9 22:30:49 10° NNW 22:36:03 76° ENE 22:36:48 63° SE
ATLAS CENTAUR R/B 4.1 22:35:54 10° W 22:38:34 18° NW 22:41:20 10° N
GEOS 3 Rocket 3.5 22:35:06 10° NE 22:40:30 79° SE 22:43:44 25° SSW
SL-8 R/B 3.9 22:36:51 10° WSW 22:41:39 70° NNW 22:43:31 36° NE
SL-16 R/B 2.4 22:43:11 14° SSW 22:48:08 72° WNW 22:53:48 10° NNE
CZ-2C R/B 3.9 22:49:11 32° ENE 22:49:11 32° ENE 22:53:04 10° N
ARGOS 4.3 22:48:17 24° SW 22:50:47 36° W 22:55:43 10° NNW
Cosmos 2344 3.5 22:44:38 10° SSW 22:52:10 71° ESE 23:00:28 10° NE
Cosmos 1000 Rocket 4.4 22:46:30 10° N 22:52:43 87° W 22:54:15 55° S
Cosmos 1933 3.8 22:54:28 59° NNW 22:54:28 59° NNW 22:57:55 10° N
Cosmos 1943 Rocket 3.4 22:49:15 10° N 22:53:57 27° NE 22:54:37 27° ENE
SL-19 R/B 4.2 22:53:15 65° SSE 22:54:08 88° WSW 22:59:46 10° NNW
Cosmos 1821 Rocket 3.9 22:57:37 53° S 22:59:19 90° NE 23:05:40 10° N
DMSP B5D2-2 4.2 22:58:02 10° N 23:03:17 70° WNW 23:04:25 53° SW
NOSS 3-4 (A) 4.3 22:59:04 10° NW 23:05:55 53° WSW 23:07:54 42° SSW
NOSS 3-4 (C) 4.2 22:59:09 10° NW 23:06:01 53° WSW 23:07:59 43° SSW
Cosmos 1420 Rocket 3.9 23:08:01 84° NE 23:08:01 84° NE 23:13:13 10° NNE
SPOT 1/Viking Rocket 3.9 23:09:39 53° SW 23:10:10 56° W 23:15:19 10° NNW
ERS-1 Rocket 4.3 23:10:08 27° WSW 23:11:22 31° W 23:15:49 10° NW
USA 267 3.1 23:05:52 10° NE 23:12:26 79° SE 23:18:59 10° SW
Cosmos 614 Rocket 4.4 23:07:43 10° NNW 23:12:47 52° WSW 23:12:58 51° WSW
Meteor 1-14 Rocket 4.1 23:08:36 10° N 23:14:00 76° ENE 23:14:00 76° ENE
Cosmos 1603 4.0 23:16:16 52° ENE 23:16:16 52° ENE 23:20:40 10° NNE
Cosmos 2123 Rocket 3.8 23:08:58 10° N 23:15:19 82° E 23:15:50 75° SE
H-2A R/B 3.7 23:17:10 22° WSW 23:18:36 24° W 23:22:40 10° NW
Helios 1B rocket 3.7 23:21:40 10° N 23:25:09 39° NW 23:25:09 39° NW
Cosmos 2369 Rocket 2.4 23:19:54 10° NNW 23:25:18 62° NE 23:25:18 62° NE
Meteor 1-25 Rocket 4.4 23:33:29 10° NNW 23:38:56 69° WNW 23:38:56 69° WNW
CZ-2C R/B 3.3 23:35:41 10° NNE 23:39:33 46° NE 23:39:33 46° NE
CZ-4C R/B 2.4 23:44:41 66° N 23:44:41 66° N 23:50:05 10° NE
USA 234 3.3 23:45:38 61° ENE 23:46:33 69° NE 23:53:04 10° NW
Terra 3.0 23:48:17 38° WNW 23:48:17 38° WNW 23:51:55 10° NNW
RESURS DK-1 4.2 23:44:04 10° NNW 23:46:14 29° NNW 23:46:14 29° NNW
Cosmos 1605 Rocket 4.0 23:49:31 76° W 23:49:38 77° W 23:56:03 10° N
